| time (UTC) | temp F | wind direction | speed MPH | gust MPH | rain 1hr in | rain 24hr in | rain mn in | humidity % | barometer mb |
| 20260507135808 | 51 | 146 | 0.0 | 2.0 | 0.00 | 0.29 | 0.29 | 94 | 1010.6 |
| 20260507135306 | 51 | 34 | 1.0 | 3.0 | 0.00 | 0.29 | 0.29 | 94 | 1010.4 |
| 20260507134801 | 50 | 40 | 2.0 | 2.0 | 0.00 | 0.29 | 0.29 | 94 | 1010.3 |
| 20260507134258 | 50 | 120 | 0.0 | 0.0 | 0.00 | 0.29 | 0.29 | 95 | 1010.2 |
| 20260507133754 | 50 | 59 | 1.0 | 2.0 | 0.00 | 0.29 | 0.29 | 96 | 1010.3 |
| 20260507133250 | 50 | 190 | 2.0 | 2.0 | 0.00 | 0.29 | 0.29 | 96 | 1010.4 |
| 20260507132748 | 50 | 104 | 0.0 | 0.0 | 0.00 | 0.29 | 0.29 | 97 | 1010.3 |
| 20260507132245 | 50 | 124 | 0.0 | 0.0 | 0.00 | 0.29 | 0.29 | 97 | 1010.4 |
| 20260507131742 | 50 | 118 | 0.0 | 0.0 | 0.00 | 0.29 | 0.29 | 97 | 1010.1 |
| 20260507131239 | 49 | 107 | 0.0 | 1.0 | 0.00 | 0.29 | 0.29 | 97 | 1010.0 |
| 20260507130735 | 49 | 137 | 0.0 | 0.0 | 0.00 | 0.29 | 0.29 | 97 | 1010.0 |
| 20260507130233 | 49 | 64 | 0.0 | 0.0 | 0.00 | 0.29 | 0.29 | 97 | 1010.2 |
| 20260507125732 | 49 | 131 | 0.0 | 0.0 | 0.05 | 0.29 | 0.29 | 97 | 1010.1 |
| 20260507125229 | 49 | 131 | 0.0 | 0.0 | 0.05 | 0.29 | 0.29 | 97 | 1010.4 |
| 20260507124725 | 48 | 146 | 0.0 | 1.0 | 0.00 | 0.28 | 0.28 | 97 | 1010.8 |
| 20260507124222 | 48 | 126 | 0.0 | 3.0 | 0.00 | 0.28 | 0.28 | 97 | 1010.5 |
| 20260507123721 | 49 | 90 | 0.0 | 0.0 | 0.07 | 0.28 | 0.28 | 98 | 1010.6 |
| 20260507123218 | 48 | 132 | 1.0 | 1.0 | 0.07 | 0.28 | 0.28 | 98 | 1010.8 |
| 20260507122713 | 48 | 125 | 0.0 | 0.0 | 0.00 | 0.27 | 0.27 | 98 | 1010.5 |
| 20260507122209 | 48 | 127 | 0.0 | 0.0 | 0.00 | 0.27 | 0.27 | 98 | 1010.7 |
| 20260507121705 | 48 | 138 | 0.0 | 1.0 | 0.05 | 0.27 | 0.27 | 97 | 1010.5 |
| 20260507121201 | 48 | 105 | 0.0 | 1.0 | 0.05 | 0.27 | 0.27 | 97 | 1010.2 |
| 20260507120657 | 48 | 123 | 0.0 | 2.0 | 0.00 | 0.26 | 0.26 | 97 | 1010.1 |
| 20260507120154 | 48 | 120 | 0.0 | 3.0 | 0.00 | 0.26 | 0.26 | 97 | 1010.3 |
| 20260507115650 | 49 | 197 | 1.0 | 2.0 | 0.00 | 0.26 | 0.26 | 97 | 1010.5 |
| 20260507115146 | 49 | 77 | 3.0 | 4.0 | 0.00 | 0.26 | 0.26 | 97 | 1010.5 |
| 20260507114642 | 49 | 39 | 1.0 | 3.0 | 0.00 | 0.26 | 0.26 | 98 | 1010.2 |
| 20260507114140 | 49 | 27 | 3.0 | 6.0 | 0.00 | 0.26 | 0.26 | 98 | 1010.2 |
| 20260507113637 | 49 | 111 | 0.0 | 3.0 | 0.00 | 0.26 | 0.26 | 98 | 1010.4 |
| 20260507113133 | 49 | 138 | 1.0 | 1.0 | 0.07 | 0.26 | 0.26 | 98 | 1010.5 |
| 20260507112632 | 50 | 138 | 1.0 | 4.0 | 0.00 | 0.25 | 0.25 | 98 | 1010.7 |
| 20260507112128 | 50 | 118 | 0.0 | 1.0 | 0.00 | 0.25 | 0.25 | 99 | 1010.7 |
| 20260507111626 | 50 | 262 | 2.0 | 2.0 | 0.00 | 0.25 | 0.25 | 98 | 1010.4 |
| 20260507111122 | 50 | 88 | 1.0 | 2.0 | 0.00 | 0.25 | 0.25 | 98 | 1009.8 |
| 20260507110618 | 50 | 221 | 1.0 | 4.0 | 0.00 | 0.25 | 0.25 | 98 | 1009.5 |
| 20260507110115 | 50 | 232 | 1.0 | 2.0 | 0.05 | 0.25 | 0.25 | 99 | 1009.3 |
| 20260507105612 | 51 | 89 | 1.0 | 2.0 | 0.05 | 0.25 | 0.25 | 99 | 1009.3 |
| 20260507105107 | 51 | 152 | 1.0 | 1.0 | 0.07 | 0.24 | 0.24 | 99 | 1009.4 |
| 20260507104606 | 51 | 124 | 0.0 | 1.0 | 0.12 | 0.24 | 0.24 | 99 | 1009.5 |
| 20260507104102 | 51 | 31 | 0.0 | 2.0 | 0.05 | 0.23 | 0.23 | 99 | 1009.4 |
| 20260507103558 | 51 | 133 | 0.0 | 1.0 | 0.00 | 0.22 | 0.22 | 99 | 1009.6 |
| 20260507103055 | 51 | 95 | 1.0 | 1.0 | 0.00 | 0.22 | 0.22 | 99 | 1009.2 |
| 20260507102551 | 51 | 40 | 1.0 | 1.0 | 0.00 | 0.22 | 0.22 | 99 | 1009.2 |
| 20260507102047 | 52 | 20 | 2.0 | 4.0 | 0.00 | 0.22 | 0.22 | 99 | 1009.5 |
| 20260507101543 | 52 | 108 | 0.0 | 1.0 | 0.00 | 0.22 | 0.22 | 99 | 1009.1 |
| 20260507101039 | 52 | 63 | 1.0 | 3.0 | 0.07 | 0.22 | 0.22 | 99 | 1009.0 |
| 20260507100537 | 52 | 50 | 0.0 | 4.0 | 0.07 | 0.22 | 0.22 | 99 | 1008.7 |
| 20260507100035 | 52 | 335 | 2.0 | 4.0 | 0.00 | 0.21 | 0.21 | 99 | 1008.4 |
| 20260507095532 | 52 | 67 | 0.0 | 2.0 | 0.00 | 0.21 | 0.21 | 99 | 1008.9 |
| 20260507095029 | 53 | 30 | 3.0 | 4.0 | 0.05 | 0.21 | 0.21 | 99 | 1008.9 |
| 20260507094525 | 53 | 82 | 0.0 | 7.0 | 0.05 | 0.21 | 0.21 | 99 | 1008.5 |
| 20260507094022 | 53 | 148 | 0.0 | 1.0 | 0.14 | 0.20 | 0.20 | 99 | 1008.5 |
| 20260507093520 | 53 | 54 | 4.0 | 7.0 | 0.12 | 0.19 | 0.19 | 99 | 1008.2 |
| 20260507093018 | 53 | 149 | 1.0 | 1.0 | 0.17 | 0.18 | 0.18 | 99 | 1008.7 |
| 20260507092514 | 53 | 82 | 0.0 | 0.0 | 0.42 | 0.17 | 0.17 | 99 | 1008.8 |
| 20260507092011 | 53 | 149 | 1.0 | 2.0 | 0.24 | 0.13 | 0.13 | 99 | 1009.0 |
| 20260507091508 | 52 | 87 | 0.0 | 0.0 | 0.12 | 0.10 | 0.10 | 99 | 1008.4 |
| 20260507091004 | 52 | 87 | 0.0 | 0.0 | 0.19 | 0.09 | 0.09 | 99 | 1008.3 |
| 20260507090459 | 52 | 86 | 0.0 | 0.0 | 0.19 | 0.08 | 0.08 | 99 | 1008.4 |
| 20260507085956 | 52 | 119 | 0.0 | 0.0 | 0.00 | 0.05 | 0.05 | 99 | 1008.9 |
| 20260507085454 | 52 | 93 | 0.0 | 0.0 | 0.00 | 0.05 | 0.05 | 99 | 1008.7 |
| 20260507084950 | 52 | 141 | 0.0 | 1.0 | 0.05 | 0.05 | 0.05 | 99 | 1008.8 |
| 20260507084447 | 52 | 358 | 0.0 | 1.0 | 0.17 | 0.05 | 0.05 | 99 | 1008.9 |
| 20260507083944 | 52 | 150 | 0.0 | 1.0 | 0.19 | 0.04 | 0.04 | 99 | 1009.0 |
| 20260507083440 | 52 | 203 | 2.0 | 3.0 | 0.00 | 0.01 | 0.01 | 99 | 1009.4 |
| 20260507082937 | 53 | 127 | 0.0 | 2.0 | 0.00 | 0.01 | 0.01 | 99 | 1009.2 |
| 20260507082433 | 52 | 254 | 1.0 | 2.0 | 0.00 | 0.01 | 0.01 | 99 | 1009.2 |
| 20260507081930 | 52 | 140 | 0.0 | 1.0 | 0.00 | 0.01 | 0.01 | 99 | 1008.7 |
| 20260507081426 | 53 | 135 | 0.0 | 1.0 | 0.00 | 0.01 | 0.01 | 99 | 1008.2 |
| 20260507080923 | 52 | 137 | 0.0 | 1.0 | 0.00 | 0.01 | 0.01 | 99 | 1008.0 |
| 20260507080419 | 52 | 133 | 0.0 | 0.0 | 0.00 | 0.01 | 0.01 | 99 | 1007.5 |
| 20260507075914 | 52 | 129 | 0.0 | 0.0 | 0.00 | 0.01 | 0.01 | 99 | 1007.6 |
| 20260507075411 | 53 | 129 | 0.0 | 0.0 | 0.00 | 0.01 | 0.01 | 99 | 1007.9 |
| 20260507074908 | 53 | 129 | 0.0 | 0.0 | 0.00 | 0.01 | 0.01 | 99 | 1008.4 |
| 20260507074404 | 53 | 120 | 0.0 | 0.0 | 0.00 | 0.01 | 0.01 | 99 | 1008.1 |
| 20260507073902 | 53 | 118 | 0.0 | 0.0 | 0.00 | 0.01 | 0.01 | 99 | 1007.9 |
| 20260507073358 | 53 | 118 | 0.0 | 0.0 | 0.00 | 0.01 | 0.01 | 99 | 1008.1 |
| 20260507072855 | 53 | 119 | 0.0 | 0.0 | 0.00 | 0.01 | 0.01 | 99 | 1008.1 |
| 20260507072353 | 53 | 119 | 0.0 | 0.0 | 0.05 | 0.01 | 0.01 | 99 | 1008.3 |
| 20260507071850 | 53 | 92 | 0.0 | 0.0 | 0.00 | 0.00 | 0.00 | 99 | 1008.3 |
| 20260507071347 | 53 | 137 | 0.0 | 0.0 | 0.00 | 0.00 | 0.00 | 99 | 1008.2 |
| 20260507070843 | 53 | 120 | 0.0 | 1.0 | 0.00 | 0.00 | 0.00 | 99 | 1008.5 |
| 20260507070341 | 53 | 134 | 0.0 | 0.0 | 0.00 | 0.00 | 0.00 | 99 | 1008.6 |
| 20260507065838 | 53 | 133 | 0.0 | 0.0 | 0.00 | 0.00 | 0.00 | 99 | 1008.5 |
| 20260507065334 | 53 | 145 | 0.0 | 2.0 | 0.00 | 0.00 | 0.00 | 99 | 1008.6 |
| 20260507064831 | 53 | 218 | 2.0 | 2.0 | 0.00 | 0.00 | 0.00 | 99 | 1008.6 |
| 20260507064330 | 53 | 224 | 2.0 | 3.0 | 0.00 | 0.00 | 0.00 | 99 | 1008.3 |
| 20260507063827 | 53 | 174 | 1.0 | 2.0 | 0.00 | 0.00 | 0.00 | 99 | 1008.2 |
| 20260507063324 | 53 | 139 | 0.0 | 1.0 | 0.00 | 0.00 | 0.00 | 99 | 1008.5 |
| 20260507062821 | 53 | 342 | 2.0 | 2.0 | 0.00 | 0.00 | 0.00 | 99 | 1008.4 |
| 20260507062318 | 53 | 176 | 0.0 | 0.0 | 0.00 | 0.00 | 0.00 | 99 | 1008.6 |
| 20260507061816 | 53 | 159 | 1.0 | 2.0 | 0.00 | 0.00 | 0.00 | 99 | 1008.7 |
| 20260507061314 | 53 | 237 | 2.0 | 3.0 | 0.00 | 0.00 | 0.00 | 99 | 1008.7 |
| 20260507060812 | 53 | 245 | 3.0 | 4.0 | 0.00 | 0.00 | 0.00 | 99 | 1009.0 |
| 20260507060308 | 53 | 245 | 2.0 | 3.0 | 0.00 | 0.00 | 0.00 | 99 | 1008.9 |
| 20260507055805 | 53 | 185 | 2.0 | 3.0 | 0.00 | 0.00 | 0.00 | 99 | 1008.9 |
| 20260507055300 | 54 | 260 | 2.0 | 2.0 | 0.00 | 0.00 | 0.00 | 99 | 1009.3 |
| 20260507054756 | 54 | 139 | 0.0 | 1.0 | 0.00 | 0.00 | 0.00 | 99 | 1009.3 |
| 20260507054253 | 54 | 188 | 1.0 | 2.0 | 0.00 | 0.00 | 0.00 | 99 | 1009.2 |
| 20260507053750 | 54 | 233 | 2.0 | 3.0 | 0.00 | 0.00 | 0.00 | 99 | 1009.1 |
| 20260507053248 | 54 | 208 | 2.0 | 3.0 | 0.00 | 0.00 | 0.00 | 99 | 1009.4 |
| 20260507052747 | 54 | 133 | 0.0 | 3.0 | 0.00 | 0.00 | 0.00 | 99 | 1009.5 |
| 20260507052243 | 54 | 152 | 1.0 | 2.0 | 0.00 | 0.00 | 0.00 | 99 | 1009.4 |
| 20260507051741 | 55 | 154 | 0.0 | 0.0 | 0.00 | 0.00 | 0.00 | 99 | 1009.3 |
| 20260507051237 | 54 | 203 | 1.0 | 2.0 | 0.00 | 0.00 | 0.00 | 99 | 1009.5 |
| 20260507050734 | 55 | 177 | 1.0 | 2.0 | 0.00 | 0.00 | 0.00 | 99 | 1009.5 |
| 20260507050231 | 55 | 168 | 1.0 | 2.0 | 0.00 | 0.00 | 0.00 | 99 | 1009.7 |
| 20260507045728 | 55 | 179 | 2.0 | 7.0 | 0.00 | 0.00 | 0.00 | 99 | 1009.7 |
| 20260507045224 | 55 | 94 | 1.0 | 2.0 | 0.00 | 0.00 | 0.00 | 99 | 1009.6 |
| 20260507044722 | 55 | 167 | 0.0 | 0.0 | 0.00 | 0.00 | 0.00 | 99 | 1009.6 |
| 20260507044218 | 55 | 183 | 1.0 | 2.0 | 0.00 | 0.00 | 0.00 | 99 | 1009.6 |
| 20260507043714 | 55 | 159 | 1.0 | 2.0 | 0.00 | 0.00 | 0.00 | 99 | 1009.5 |
| 20260507043211 | 55 | 63 | 2.0 | 2.0 | 0.00 | 0.00 | 0.00 | 99 | 1009.5 |
| 20260507042708 | 55 | 171 | 1.0 | 1.0 | 0.00 | 0.00 | 0.00 | 99 | 1009.5 |
| 20260507042202 | 55 | 165 | 1.0 | 4.0 | 0.00 | 0.00 | 0.00 | 99 | 1009.7 |
| 20260507041700 | 55 | 129 | 0.0 | 4.0 | 0.00 | 0.00 | 0.00 | 99 | 1009.7 |
| 20260507041156 | 55 | 229 | 2.0 | 4.0 | 0.00 | 0.00 | 0.00 | 99 | 1009.9 |
| 20260507040653 | 55 | 231 | 3.0 | 4.0 | 0.00 | 0.00 | 0.00 | 99 | 1009.9 |
| 20260507040150 | 55 | 98 | 1.0 | 4.0 | 0.00 | 0.00 | 0.00 | 99 | 1010.1 |
| 20260507035646 | 55 | 153 | 3.0 | 6.0 | 0.00 | 0.28 | 0.28 | 99 | 1010.0 |
| 20260507035142 | 55 | 129 | 0.0 | 3.0 | 0.00 | 0.28 | 0.28 | 99 | 1010.1 |
| 20260507034639 | 55 | 136 | 0.0 | 2.0 | 0.00 | 0.28 | 0.28 | 99 | 1009.9 |
| 20260507034136 | 56 | 168 | 0.0 | 2.0 | 0.00 | 0.28 | 0.28 | 99 | 1010.0 |
| 20260507033635 | 56 | 277 | 3.0 | 6.0 | 0.00 | 0.28 | 0.28 | 99 | 1010.0 |
| 20260507033131 | 56 | 201 | 2.0 | 8.0 | 0.00 | 0.28 | 0.28 | 99 | 1010.1 |
| 20260507032629 | 56 | 173 | 2.0 | 6.0 | 0.00 | 0.28 | 0.28 | 99 | 1010.1 |
| 20260507032125 | 56 | 174 | 1.0 | 4.0 | 0.00 | 0.28 | 0.28 | 99 | 1009.9 |
| 20260507031622 | 56 | 188 | 1.0 | 3.0 | 0.00 | 0.28 | 0.28 | 99 | 1009.8 |
| 20260507031118 | 56 | 241 | 3.0 | 6.0 | 0.00 | 0.28 | 0.28 | 99 | 1009.8 |
| 20260507030615 | 56 | 164 | 2.0 | 4.0 | 0.00 | 0.28 | 0.28 | 99 | 1009.8 |
| 20260507030113 | 56 | 201 | 2.0 | 6.0 | 0.00 | 0.28 | 0.28 | 99 | 1009.8 |
| 20260507025610 | 56 | 200 | 1.0 | 3.0 | 0.00 | 0.28 | 0.28 | 99 | 1009.7 |
| 20260507025107 | 56 | 182 | 0.0 | 3.0 | 0.00 | 0.28 | 0.28 | 99 | 1010.0 |
| 20260507024605 | 56 | 135 | 1.0 | 3.0 | 0.00 | 0.28 | 0.28 | 99 | 1010.0 |
| 20260507024102 | 56 | 134 | 1.0 | 4.0 | 0.00 | 0.28 | 0.28 | 99 | 1010.1 |
| 20260507023557 | 56 | 138 | 0.0 | 3.0 | 0.00 | 0.28 | 0.28 | 99 | 1010.1 |
| 20260507023055 | 56 | 173 | 3.0 | 4.0 | 0.00 | 0.28 | 0.28 | 99 | 1010.5 |
| 20260507022551 | 56 | 149 | 2.0 | 6.0 | 0.00 | 0.28 | 0.28 | 99 | 1010.3 |
| 20260507022046 | 56 | 145 | 1.0 | 4.0 | 0.00 | 0.28 | 0.28 | 99 | 1010.6 |
| 20260507021543 | 57 | 214 | 2.0 | 3.0 | 0.00 | 0.28 | 0.28 | 99 | 1010.5 |
| 20260507021039 | 57 | 41 | 2.0 | 3.0 | 0.00 | 0.28 | 0.28 | 99 | 1010.7 |
| 20260507020537 | 57 | 210 | 1.0 | 4.0 | 0.00 | 0.28 | 0.28 | 99 | 1010.6 |
| 20260507020034 | 57 | 286 | 3.0 | 4.0 | 0.00 | 0.28 | 0.28 | 99 | 1010.7 |
| 20260507015532 | 57 | 139 | 1.0 | 4.0 | 0.00 | 0.28 | 0.28 | 99 | 1010.5 |
| 20260507015029 | 57 | 240 | 3.0 | 6.0 | 0.00 | 0.28 | 0.28 | 99 | 1010.6 |
| 20260507014526 | 57 | 269 | 3.0 | 7.0 | 0.00 | 0.28 | 0.28 | 99 | 1010.7 |
| 20260507014021 | 57 | 201 | 5.0 | 7.0 | 0.00 | 0.28 | 0.28 | 99 | 1010.8 |
| 20260507013518 | 57 | 203 | 4.0 | 6.0 | 0.00 | 0.28 | 0.28 | 99 | 1010.8 |
| 20260507013016 | 57 | 258 | 3.0 | 7.0 | 0.00 | 0.28 | 0.28 | 99 | 1010.9 |
| 20260507012512 | 57 | 209 | 1.0 | 4.0 | 0.00 | 0.28 | 0.28 | 99 | 1010.8 |
| 20260507012009 | 57 | 188 | 4.0 | 7.0 | 0.00 | 0.28 | 0.28 | 99 | 1011.0 |
| 20260507011506 | 57 | 259 | 3.0 | 8.0 | 0.00 | 0.28 | 0.28 | 99 | 1010.7 |
| 20260507011002 | 57 | 192 | 4.0 | 9.0 | 0.00 | 0.28 | 0.28 | 99 | 1010.8 |
| 20260507010456 | 57 | 182 | 2.0 | 3.0 | 0.00 | 0.28 | 0.28 | 99 | 1010.8 |
| 20260507005953 | 57 | 188 | 1.0 | 6.0 | 0.07 | 0.28 | 0.28 | 99 | 1010.8 |
| 20260507005451 | 58 | 169 | 2.0 | 6.0 | 0.07 | 0.28 | 0.28 | 99 | 1010.6 |
| 20260507004947 | 58 | 123 | 1.0 | 3.0 | 0.00 | 0.27 | 0.27 | 99 | 1010.8 |
| 20260507004444 | 58 | 243 | 2.0 | 4.0 | 0.00 | 0.27 | 0.27 | 99 | 1010.7 |
| 20260507003942 | 57 | 114 | 1.0 | 6.0 | 0.00 | 0.27 | 0.27 | 99 | 1010.6 |
| 20260507003437 | 57 | 224 | 1.0 | 3.0 | 0.05 | 0.27 | 0.27 | 99 | 1010.7 |
| 20260507002932 | 57 | 122 | 1.0 | 3.0 | 0.12 | 0.27 | 0.27 | 99 | 1010.7 |
| 20260507002428 | 57 | 129 | 0.0 | 2.0 | 0.12 | 0.26 | 0.26 | 99 | 1010.5 |
| 20260507001926 | 57 | 174 | 2.0 | 3.0 | 0.12 | 0.25 | 0.25 | 99 | 1010.7 |
| 20260507001422 | 57 | 329 | 1.0 | 3.0 | 0.12 | 0.24 | 0.24 | 99 | 1010.8 |
| 20260507000920 | 57 | 130 | 2.0 | 9.0 | 0.07 | 0.22 | 0.22 | 99 | 1010.8 |
| 20260507000415 | 57 | 173 | 2.0 | 3.0 | 0.07 | 0.22 | 0.22 | 99 | 1010.7 |
| 20260506235911 | 57 | 183 | 1.0 | 3.0 | 0.00 | 0.21 | 0.21 | 99 | 1010.6 |
| 20260506235409 | 57 | 168 | 1.0 | 2.0 | 0.07 | 0.21 | 0.21 | 99 | 1010.8 |
| 20260506234904 | 57 | 180 | 4.0 | 6.0 | 0.12 | 0.21 | 0.21 | 99 | 1010.7 |
| 20260506234402 | 57 | 145 | 1.0 | 2.0 | 0.12 | 0.20 | 0.20 | 99 | 1010.7 |
| 20260506233859 | 57 | 158 | 1.0 | 3.0 | 0.19 | 0.19 | 0.19 | 99 | 1010.6 |
| 20260506233355 | 57 | 167 | 2.0 | 4.0 | 0.17 | 0.18 | 0.18 | 99 | 1010.9 |
| 20260506232852 | 57 | 119 | 2.0 | 2.0 | 0.12 | 0.16 | 0.16 | 99 | 1010.7 |
| 20260506232348 | 57 | 148 | 1.0 | 2.0 | 0.12 | 0.15 | 0.15 | 98 | 1011.0 |
| 20260506231844 | 57 | 300 | 2.0 | 8.0 | 0.12 | 0.14 | 0.14 | 98 | 1010.9 |
| 20260506231342 | 57 | 170 | 2.0 | 2.0 | 0.12 | 0.13 | 0.13 | 98 | 1011.3 |
| 20260506230839 | 57 | 146 | 2.0 | 4.0 | 0.07 | 0.11 | 0.11 | 98 | 1011.4 |
| 20260506230336 | 57 | 124 | 1.0 | 4.0 | 0.19 | 0.11 | 0.11 | 98 | 1011.5 |
| 20260506225832 | 57 | 120 | 1.0 | 2.0 | 0.05 | 0.09 | 0.09 | 98 | 1011.2 |
| 20260506225330 | 57 | 147 | 2.0 | 3.0 | 0.07 | 0.08 | 0.08 | 98 | 1011.2 |
| 20260506224827 | 58 | 135 | 0.0 | 3.0 | 0.12 | 0.08 | 0.08 | 97 | 1011.3 |
| 20260506224324 | 58 | 132 | 0.0 | 2.0 | 0.17 | 0.07 | 0.07 | 97 | 1011.4 |
| 20260506223820 | 58 | 212 | 2.0 | 3.0 | 0.31 | 0.06 | 0.06 | 96 | 1011.4 |
| 20260506223315 | 58 | 184 | 3.0 | 4.0 | 0.19 | 0.04 | 0.04 | 95 | 1011.5 |
| 20260506222813 | 58 | 167 | 1.0 | 6.0 | 0.00 | 0.01 | 0.01 | 94 | 1011.4 |
| 20260506222308 | 58 | 104 | 3.0 | 8.0 | 0.00 | 0.01 | 0.01 | 94 | 1011.4 |
| 20260506221806 | 58 | 160 | 2.0 | 2.0 | 0.05 | 0.01 | 0.01 | 95 | 1011.3 |
| 20260506221304 | 59 | 168 | 2.0 | 3.0 | 0.05 | 0.01 | 0.01 | 94 | 1011.3 |
| 20260506220802 | 59 | 133 | 1.0 | 2.0 | 0.00 | 0.00 | 0.00 | 93 | 1011.5 |
| 20260506220302 | 59 | 159 | 2.0 | 4.0 | 0.00 | 0.00 | 0.00 | 92 | 1011.4 |
| 20260506215759 | 60 | 98 | 2.0 | 4.0 | 0.00 | 0.00 | 0.00 | 87 | 1011.2 |
| 20260506215254 | 60 | 145 | 2.0 | 3.0 | 0.00 | 0.00 | 0.00 | 86 | 1011.6 |
| 20260506214750 | 61 | 127 | 1.0 | 6.0 | 0.00 | 0.00 | 0.00 | 84 | 1011.4 |
| 20260506214248 | 61 | 179 | 2.0 | 3.0 | 0.00 | 0.00 | 0.00 | 84 | 1011.5 |
| 20260506213746 | 61 | 230 | 4.0 | 6.0 | 0.00 | 0.00 | 0.00 | 84 | 1011.5 |
| 20260506213243 | 60 | 159 | 2.0 | 7.0 | 0.00 | 0.00 | 0.00 | 85 | 1011.7 |
| 20260506212740 | 60 | 202 | 3.0 | 7.0 | 0.00 | 0.00 | 0.00 | 86 | 1011.5 |
| 20260506212236 | 60 | 198 | 3.0 | 7.0 | 0.00 | 0.00 | 0.00 | 85 | 1011.8 |
| 20260506211731 | 61 | 182 | 4.0 | 8.0 | 0.00 | 0.00 | 0.00 | 85 | 1011.7 |
| 20260506211228 | 61 | 46 | 2.0 | 6.0 | 0.00 | 0.00 | 0.00 | 83 | 1011.7 |
| 20260506210725 | 62 | 137 | 1.0 | 3.0 | 0.00 | 0.00 | 0.00 | 81 | 1011.7 |
| 20260506210221 | 62 | 156 | 3.0 | 4.0 | 0.00 | 0.00 | 0.00 | 81 | 1011.7 |
| 20260506205719 | 61 | 160 | 4.0 | 7.0 | 0.00 | 0.00 | 0.00 | 81 | 1011.8 |
| 20260506205214 | 62 | 155 | 2.0 | 4.0 | 0.00 | 0.00 | 0.00 | 81 | 1011.5 |
| 20260506204711 | 61 | 139 | 2.0 | 3.0 | 0.00 | 0.00 | 0.00 | 82 | 1011.7 |
| 20260506204209 | 61 | 162 | 1.0 | 4.0 | 0.00 | 0.00 | 0.00 | 82 | 1011.6 |
| 20260506203707 | 62 | 174 | 4.0 | 7.0 | 0.00 | 0.00 | 0.00 | 81 | 1012.0 |
| 20260506203203 | 62 | 196 | 1.0 | 6.0 | 0.00 | 0.00 | 0.00 | 80 | 1012.1 |
| 20260506202701 | 62 | 182 | 2.0 | 3.0 | 0.00 | 0.00 | 0.00 | 80 | 1012.0 |
| 20260506202157 | 62 | 187 | 4.0 | 7.0 | 0.00 | 0.00 | 0.00 | 79 | 1012.1 |
| 20260506201654 | 63 | 196 | 4.0 | 6.0 | 0.00 | 0.00 | 0.00 | 79 | 1011.9 |
| 20260506201150 | 63 | 177 | 2.0 | 9.0 | 0.00 | 0.00 | 0.00 | 78 | 1012.0 |
| 20260506200648 | 63 | 191 | 2.0 | 9.0 | 0.00 | 0.00 | 0.00 | 78 | 1012.3 |
| 20260506200144 | 62 | 184 | 2.0 | 7.0 | 0.00 | 0.00 | 0.00 | 78 | 1012.2 |
| 20260506195641 | 62 | 201 | 3.0 | 4.0 | 0.00 | 0.00 | 0.00 | 79 | 1012.3 |
| 20260506195137 | 62 | 176 | 2.0 | 3.0 | 0.00 | 0.00 | 0.00 | 78 | 1012.3 |
| 20260506194635 | 63 | 191 | 3.0 | 6.0 | 0.00 | 0.00 | 0.00 | 77 | 1012.5 |
| 20260506194131 | 63 | 104 | 1.0 | 3.0 | 0.00 | 0.00 | 0.00 | 77 | 1012.7 |
| 20260506193629 | 62 | 139 | 1.0 | 7.0 | 0.00 | 0.00 | 0.00 | 78 | 1012.6 |
| 20260506193126 | 62 | 275 | 3.0 | 6.0 | 0.00 | 0.00 | 0.00 | 78 | 1012.6 |
| 20260506192622 | 62 | 224 | 1.0 | 4.0 | 0.00 | 0.00 | 0.00 | 79 | 1012.6 |
| 20260506192118 | 62 | 178 | 1.0 | 2.0 | 0.00 | 0.00 | 0.00 | 78 | 1012.6 |
| 20260506191615 | 62 | 172 | 3.0 | 3.0 | 0.00 | 0.00 | 0.00 | 78 | 1012.7 |
| 20260506191111 | 62 | 196 | 2.0 | 6.0 | 0.00 | 0.00 | 0.00 | 78 | 1012.5 |
| 20260506190609 | 62 | 249 | 4.0 | 4.0 | 0.00 | 0.00 | 0.00 | 78 | 1012.5 |
| 20260506190105 | 63 | 191 | 3.0 | 4.0 | 0.00 | 0.00 | 0.00 | 78 | 1012.6 |
| 20260506185603 | 63 | 180 | 1.0 | 9.0 | 0.00 | 0.00 | 0.00 | 77 | 1012.6 |
| 20260506185059 | 64 | 155 | 2.0 | 3.0 | 0.00 | 0.00 | 0.00 | 75 | 1012.8 |
| 20260506184556 | 64 | 228 | 3.0 | 10.0 | 0.00 | 0.00 | 0.00 | 75 | 1012.8 |
| 20260506184054 | 64 | 234 | 4.0 | 6.0 | 0.00 | 0.00 | 0.00 | 75 | 1013.1 |
| 20260506183549 | 64 | 167 | 2.0 | 7.0 | 0.00 | 0.00 | 0.00 | 75 | 1013.1 |
| 20260506183046 | 64 | 236 | 1.0 | 4.0 | 0.00 | 0.00 | 0.00 | 75 | 1013.1 |
| 20260506182544 | 65 | 302 | 2.0 | 6.0 | 0.00 | 0.00 | 0.00 | 73 | 1013.3 |
| 20260506182041 | 65 | 188 | 2.0 | 4.0 | 0.00 | 0.00 | 0.00 | 74 | 1013.3 |
| 20260506181539 | 65 | 181 | 1.0 | 4.0 | 0.00 | 0.00 | 0.00 | 74 | 1013.5 |
| 20260506181035 | 66 | 175 | 2.0 | 6.0 | 0.00 | 0.00 | 0.00 | 73 | 1013.5 |
| 20260506180532 | 66 | 156 | 3.0 | 4.0 | 0.00 | 0.00 | 0.00 | 72 | 1013.6 |
| 20260506180028 | 67 | 221 | 3.0 | 4.0 | 0.00 | 0.00 | 0.00 | 72 | 1013.7 |
| 20260506175525 | 67 | 157 | 1.0 | 6.0 | 0.00 | 0.00 | 0.00 | 71 | 1013.7 |
| 20260506175021 | 68 | 127 | 1.0 | 6.0 | 0.00 | 0.00 | 0.00 | 69 | 1013.8 |
| 20260506174520 | 69 | 233 | 2.0 | 3.0 | 0.00 | 0.00 | 0.00 | 67 | 1013.6 |
| 20260506174016 | 68 | 129 | 1.0 | 7.0 | 0.00 | 0.00 | 0.00 | 70 | 1013.8 |
| 20260506173514 | 68 | 186 | 2.0 | 8.0 | 0.00 | 0.00 | 0.00 | 70 | 1013.8 |
| 20260506173010 | 69 | 165 | 4.0 | 7.0 | 0.00 | 0.00 | 0.00 | 68 | 1014.0 |
| 20260506172508 | 69 | 241 | 3.0 | 6.0 | 0.00 | 0.00 | 0.00 | 68 | 1013.7 |
| 20260506172004 | 69 | 132 | 2.0 | 4.0 | 0.00 | 0.00 | 0.00 | 68 | 1014.0 |
| 20260506171501 | 69 | 209 | 3.0 | 6.0 | 0.00 | 0.00 | 0.00 | 68 | 1014.0 |
| 20260506170959 | 70 | 183 | 3.0 | 6.0 | 0.00 | 0.00 | 0.00 | 67 | 1014.1 |
| 20260506170455 | 68 | 97 | 2.0 | 3.0 | 0.00 | 0.00 | 0.00 | 70 | 1014.1 |
| 20260506165954 | 67 | 250 | 3.0 | 4.0 | 0.00 | 0.00 | 0.00 | 71 | 1014.3 |
| 20260506165452 | 68 | 210 | 3.0 | 9.0 | 0.00 | 0.00 | 0.00 | 71 | 1014.3 |
| 20260506164948 | 67 | 181 | 2.0 | 8.0 | 0.00 | 0.00 | 0.00 | 72 | 1014.4 |
| 20260506164445 | 67 | 173 | 2.0 | 3.0 | 0.00 | 0.00 | 0.00 | 72 | 1014.4 |
| 20260506163943 | 67 | 192 | 2.0 | 4.0 | 0.00 | 0.00 | 0.00 | 72 | 1014.4 |
| 20260506163437 | 67 | 121 | 1.0 | 6.0 | 0.00 | 0.00 | 0.00 | 71 | 1014.6 |
| 20260506162932 | 68 | 214 | 2.0 | 3.0 | 0.00 | 0.00 | 0.00 | 69 | 1014.5 |
| 20260506162430 | 68 | 213 | 3.0 | 4.0 | 0.00 | 0.00 | 0.00 | 70 | 1014.4 |
| 20260506161927 | 68 | 147 | 2.0 | 7.0 | 0.00 | 0.00 | 0.00 | 70 | 1014.7 |
| 20260506161426 | 69 | 81 | 2.0 | 8.0 | 0.00 | 0.00 | 0.00 | 68 | 1014.7 |
| 20260506160923 | 69 | 139 | 2.0 | 6.0 | 0.00 | 0.00 | 0.00 | 67 | 1014.8 |
| 20260506160420 | 70 | 104 | 2.0 | 4.0 | 0.00 | 0.00 | 0.00 | 66 | 1014.8 |
| 20260506155918 | 69 | 152 | 2.0 | 3.0 | 0.00 | 0.00 | 0.00 | 66 | 1015.1 |
| 20260506155415 | 69 | 262 | 3.0 | 7.0 | 0.00 | 0.00 | 0.00 | 66 | 1015.1 |
| 20260506153536 | 69 | 190 | 4.0 | 7.0 | 0.00 | 0.00 | 0.00 | 70 | 1015.3 |
| 20260506153034 | 69 | 197 | 2.0 | 3.0 | 0.00 | 0.00 | 0.00 | 68 | 1015.4 |
| 20260506152531 | 70 | 184 | 2.0 | 6.0 | 0.00 | 0.00 | 0.00 | 66 | 1015.5 |
| 20260506152029 | 69 | 205 | 2.0 | 6.0 | 0.00 | 0.00 | 0.00 | 69 | 1015.3 |
| 20260506151526 | 69 | 134 | 2.0 | 7.0 | 0.00 | 0.00 | 0.00 | 68 | 1015.4 |
| 20260506151023 | 69 | 259 | 4.0 | 4.0 | 0.00 | 0.00 | 0.00 | 66 | 1015.5 |
| 20260506150520 | 68 | 238 | 3.0 | 3.0 | 0.00 | 0.00 | 0.00 | 69 | 1015.3 |
| 20260506150017 | 68 | 188 | 2.0 | 4.0 | 0.00 | 0.00 | 0.00 | 70 | 1015.5 |
| 20260506145513 | 67 | 195 | 3.0 | 3.0 | 0.00 | 0.00 | 0.00 | 70 | 1015.4 |
| 20260506145011 | 68 | 156 | 2.0 | 6.0 | 0.00 | 0.00 | 0.00 | 70 | 1015.4 |
| 20260506144507 | 68 | 142 | 2.0 | 3.0 | 0.00 | 0.00 | 0.00 | 69 | 1015.2 |
| 20260506144005 | 66 | 131 | 2.0 | 3.0 | 0.00 | 0.00 | 0.00 | 72 | 1015.2 |
| 20260506143502 | 66 | 211 | 7.0 | 9.0 | 0.00 | 0.00 | 0.00 | 73 | 1015.0 |
| 20260506143001 | 66 | 146 | 2.0 | 13.0 | 0.00 | 0.00 | 0.00 | 73 | 1015.0 |
| 20260506142458 | 67 | 212 | 2.0 | 3.0 | 0.00 | 0.00 | 0.00 | 71 | 1015.1 |
| 20260506141956 | 68 | 203 | 2.0 | 7.0 | 0.00 | 0.00 | 0.00 | 69 | 1015.3 |
| 20260506141453 | 69 | 153 | 1.0 | 3.0 | 0.00 | 0.00 | 0.00 | 68 | 1015.3 |
| 20260506140952 | 69 | 173 | 3.0 | 7.0 | 0.00 | 0.00 | 0.00 | 68 | 1015.4 |
| 20260506140448 | 68 | 155 | 3.0 | 4.0 | 0.00 | 0.00 | 0.00 | 70 | 1015.3 |